Regional Weather Roundup
Issued by NWS

Home | Current Version | Previous Version | Text Only | Print | Product List | Glossary Off
Versions: 1 2 3 4 5 6 7 8 9 10 11 12 13 14 15 16 17 18 19 20 21 22 23 24 25 26 27 28 29 30 31 32 33 34 35 36 37 38 39 40 41 42 43 44 45 46 47 48 49 50

000
ASUS43 KMPX 020801
RWRMN
WEATHER ROUNDUP FOR MINNESOTA
NATIONAL WEATHER SERVICE TWIN CITIES/CHANHASSEN MN
200 AM CST FRI DEC 02 2016


NOTE: "FAIR" INDICATES FEW OR NO CLOUDS BELOW 12,000 FEET WITH NO
SIGNIFICANT WEATHER AND/OR OBSTRUCTIONS TO VISIBILITY. N/A MEANS
CURRENT SKY AND/OR WEATHER CONDITIONS ARE NOT AVAILABLE.

MNZ060>063-068>070-020900-
   Twin Cities Metro

CITY           SKY/WX    TMP DP  RH WIND       PRES   REMARKS
TWIN CITIES    CLOUDY    31  21  66 N13       30.08R WCI  21
ST PAUL        CLOUDY    31  23  72 NW12      30.09R WCI  22
CRYSTAL        CLOUDY    32  21  64 NW6       30.07R WCI  26
BLAINE         CLOUDY    34  25  69 NW7       30.07R WCI  28
LAKEVILLE      CLOUDY    30  25  80 NW8       30.07R WCI  23
EDEN PRAIRIE   CLOUDY    33  23  66 NW9       30.06R WCI  25
SOUTH ST PAUL  CLOUDY    32  22  67 NW9       30.08R WCI  24
LAKE ELMO      CLOUDY    32  27  80 NW5       30.07R WCI  27
$$
MNZ001>005-007-008-013>017-022>024-027-028-020900-
   Northwest Minnesota

CITY           SKY/WX    TMP DP  RH WIND       PRES   REMARKS
BEMIDJI        CLOUDY    23  19  86 NW7       30.07R WCI  15
HALLOCK        CLOUDY    28  25  86 NW6       30.15R WCI  22
ROSEAU         CLOUDY    25  19  80 N6        30.12R WCI  18
WARROAD        CLOUDY    21  18  86 N6        30.12R WCI  14
THIEF RVR FALL CLOUDY    26  21  81 N10       30.12R WCI  16
CROOKSTON      CLOUDY    28  23  80 N7        30.15R WCI  21
FOSSTON        CLOUDY    23  19  86 NW8       30.11R WCI  14
DETROIT LAKES  CLOUDY    27  23  86 NW8       30.11R WCI  18
MOORHEAD       CLOUDY    28  21  74 N9        30.15R WCI  20
PARK RAPIDS    CLOUDY    24  17  74 NW10      30.08R WCI  14
$$
MNZ006-009>011-018-025>026-020900-
   North Central Minnesota

CITY           SKY/WX    TMP DP  RH WIND       PRES   REMARKS
BAUDETTE       CLOUDY    25  21  85 NW9       30.08R WCI  15
FLAG ISLAND    CLOUDY    21  19  93 N9        30.09R WCI  11
INTL FALLS     CLOUDY    26  20  77 N6        30.07R WCI  19
WASKISH        CLOUDY    25  21  86 NW8       30.09R WCI  16
BIG FORK       CLOUDY    27  21  80 CALM      30.06R
LONGVILLE      CLOUDY    27  21  80 NW3       30.07R
GRAND RAPIDS   CLOUDY    26  22  84 N10       30.07R WCI  16
CRANE LAKE     CLOUDY    25  21  86 N6        30.07R WCI  18
ORR            CLOUDY    25  19  80 CALM      30.02R
COOK           CLOUDY    25  21  86 NW5       30.04R WCI  19
$$
MNZ012-019>021-037-020900-
   Northeast Minnesota

CITY           SKY/WX    TMP DP  RH WIND       PRES   REMARKS
DULUTH         CLOUDY    28  23  81 NW13      30.01R WCI  17
ELY            CLOUDY    23  21  93 N3        30.02R
HIBBING        CLOUDY    25  22  88 NW10      30.03R WCI  15
EVELETH        CLOUDY    28  23  83 N8        30.03R WCI  19
DULUTH HARBOR  CLOUDY    32  25  74 NW9       30.06R WCI  24
TWO HARBORS    MOCLDY    30  23  74 N5        29.99R WCI  25
SILVER BAY     CLOUDY    27  23  86 NW3       29.99R
GRAND MARAIS     N/A     28  21  75 CALM      30.00R
G MARAIS ARPRT CLOUDY    19  16  86 NW9G16    29.93S WCI   9
$$
MNZ029>031-032-039>041-046>048-054>057-064-020900-
   West Central Minnesota

CITY           SKY/WX    TMP DP  RH WIND       PRES   REMARKS
FERGUS FALLS   CLOUDY    27  21  80 N8        30.16R WCI  18
WHEATON        CLOUDY   N/A N/A N/A NW8       30.14R
MORRIS         CLOUDY    28  23  80 N12       30.10R WCI  18
ALEXANDRIA     CLOUDY    28  22  78 N7        30.09R WCI  21
ELBOW LAKE     CLOUDY    27  23  84 NW7       30.11S WCI  19
WADENA         CLOUDY    25  19  80 NW7       30.08R WCI  17
GLENWOOD       CLOUDY    28  25  86 N8        30.08R WCI  20
APPLETON       CLOUDY    32  25  74 NW8       30.11R WCI  25
BENSON         CLOUDY    28  21  74 N9        30.11R WCI  20
ORTONVILLE     CLOUDY    28  27  93 NW6       30.12R WCI  22
MADISON        CLOUDY    34  30  86 NW13      30.12R WCI  25
WILLMAR        CLOUDY    30  27  86 NW9       30.10R WCI  22
$$
MNZ033>034-036-042>043-049>051-058-059-020900-
   Central Minnesota

CITY           SKY/WX    TMP DP  RH WIND       PRES   REMARKS
ST CLOUD       CLOUDY    30  23  75 NW9       30.08R WCI  22
PAYNESVILLE    CLOUDY    30  24  77 NW8       30.09R WCI  22
AITKIN         CLOUDY    28  21  74 CALM      30.05R
PINE RIVER     CLOUDY    27  21  80 NW3       30.10R
BRAINERD       CLOUDY    28  21  75 NW8       30.07R WCI  20
STAPLES        CLOUDY    25  21  86 NW8       30.09R WCI  16
LONG PRAIRIE   CLOUDY    28  21  74 W7        30.08R WCI  21
LITTLE FALLS   CLOUDY    30  21  69 CALM      30.08R
LITCHFIELD     CLOUDY    30  25  80 N8        30.09R WCI  23
BUFFALO        CLOUDY    31  22  70 NW7       30.09R WCI  24
MAPLE LAKE     CLOUDY    32  25  77 N7        30.09R WCI  25
$$
MNZ037-044-045-052-053-020900-
   East Central Minnesota

CITY           SKY/WX    TMP DP  RH WIND       PRES   REMARKS
PRINCETON      CLOUDY    30  25  80 NW5       30.08R WCI  25
MORA           MOCLDY    30  21  69 N5        30.08R WCI  25
CAMBRIDGE      CLOUDY    32  21  64 N3        30.06R
RUSH CITY      CLOUDY    28  21  74 NW5       30.08R WCI  23
MOOSE LAKE     CLOUDY    30  23  74 W3        30.04R
HINCKLEY       CLOUDY    30  23  74 CALM      30.06R
CLOQUET        CLOUDY    28  21  74 NW9       30.03R WCI  20
MCGREGOR       CLOUDY    28  23  80 NW7       30.06R WCI  21
$$
MNZ071>073-080-081-089-090-097-098-020900-
   Southwest Minnesota

CITY           SKY/WX    TMP DP  RH WIND       PRES   REMARKS
MONTEVIDEO     CLOUDY    30  27  86 N9        30.13R WCI  22
GRANITE FALLS  CLOUDY    32  28  84 NW9       30.13R WCI  24
CANBY          CLOUDY    31  27  85 NW14      30.14R WCI  20
MARSHALL       CLOUDY    30  26  85 NW14      30.12R WCI  19
REDWOOD FALLS  CLOUDY    31  24  75 NW8       30.11R WCI  23
OLIVIA         CLOUDY    32  28  86 NW8       30.09R WCI  25
PIPESTONE      MIX PCPN  30  28  93 N3        30.09R
WINDOM         CLOUDY    30  27  86 NW13      30.09R WCI  20
WORTHINGTON    CLOUDY    30  28  92 NW9       30.10R WCI  22
JACKSON        CLOUDY    30  27  86 NW8       30.09R WCI  23
TRACY          CLOUDY    31  28  87 NW10      30.11R WCI  22
SLAYTON        CLOUDY    29  26  90 NW6       30.10R WCI  23
$$
MNZ065>067-074>077-082>085-091>093-020900-
   South Central Minnesota

CITY           SKY/WX    TMP DP  RH WIND       PRES   REMARKS
MANKATO        CLOUDY    32  28  85 NW8       30.09R WCI  25
NEW ULM        CLOUDY    30  25  80 N12       30.09R WCI  21
ST JAMES       CLOUDY    30  27  86 NW13G18   30.10R WCI  20
FAIRMONT       CLOUDY    32  27  81 NW12      30.10R WCI  23
GLENCOE        CLOUDY    32  27  81 NW9       30.09R WCI  24
FARIBAULT      CLOUDY    34  25  69 W7        30.07R WCI  28
OWATONNA       CLOUDY    34  25  69 NW12      30.07R WCI  25
WASECA         CLOUDY    32  30  93 NW8       30.08R WCI  25
ALBERT LEA     CLOUDY    36  34  93 W6        30.06R
$$
MNZ078>079-086>088-094>096-020900-
   Southeast Minnesota

CITY           SKY/WX    TMP DP  RH WIND       PRES   REMARKS
ROCHESTER      CLOUDY    33  26  75 NW12      30.04R WCI  24
RED WING       CLOUDY    34  23  64 NW7       30.06R WCI  28
STANTON        CLOUDY    33  26  73 N8        30.05R WCI  26
DODGE CENTER   CLOUDY    32  27  80 NW6       30.04R WCI  26
WINONA         CLOUDY    34  27  75 NW7       30.05R WCI  28
AUSTIN         CLOUDY    34  30  86 NW8       30.05R WCI  27
PRESTON        CLOUDY    32  28  83 NW8       30.04R WCI  25
$$
ABBREVIATIONS USED IN REMARKS
   TC - TEMPERATURES IN CELSIUS
  WCI - WIND CHILL INDEX
   HX - HEAT INDEX
  VSB - VISIBILITY
$$




USA.gov is the U.S. government's official web portal to all federal, state and local government web resources and services.